SCOUT A DEB, 2889

Orbit data source: Space-Track

SCOUT A DEB, 2889 is space debris in LEO originally from a launch on Fri, 28 Jan 1966 UTC launched from the Air Force Western Test Range (AFWTR). Debris objects in space refer to the collection of defunct objects orbiting the Earth. Examples of debris include non-operational satellites, rocket bodies, and fragments generated from explosions, collisions, or faulty payload assembly.

Loading next visibility...
Identifier
2889, 1966-005E
Orbit
LEO
Country
Flag of USUS
Related business
Manufacturer
Unknown
Mission
Spacecraft
Bus & Motor
Unknown
Mass
Unknown
Launch date (UTC)
1966-01-28 (60 years ago)
Launch vehicle
Unknown
Launch site
Air Force Western Test Range (AFWTR)
Object type
Payload
Rocket body
Debris
Shape & HBR
Unknown
Radar Cross Section
Small (<0.1 m²)

Expand to show TLE details & history
Last TLE update: 23 hours ago

TLE from 23 hours ago
0 SCOUT A DEB
1 02889U 66005E   25261.01802263  .00000064  00000-0  12768-3 0  9999
2 02889  89.5507 169.7944 0165827 181.2201 239.9588 13.17958332800540
Epoch: 2025-09-18T00:25Z
TLE epoch observation values (Epoch: 2025-09-18T00:25:57.155Z)
Latitude
59.63585°
Longitude
166.88371°
Altitude
1,267.127 km
Speed
7.197 km/s
True Right ascension
11h 22m 13s
True Declination
59° 29' 44"
Sunlit
Object was in daylight at epoch
Visualization orbit readout
Latitude
Unknown
Longitude
Unknown
Altitude
Unknown
Speed
Unknown
Apparent Right ascension
Unknown
Apparent Declination
Unknown
Sunlit
N/A
Visualization observer readout
Local Sidereal Time
16:22:29
Azimuth
Unknown
Elevation
Unknown
Doppler factor
Unknown
Orbital elements
Apogee altitude
1,315.118 km
Perigee altitude
1,064.131 km
Semi-major axis
7,567.762 km
Eccentricity
0.01658
Inclination
89.5507°
RAAN
169.7944°
Arg. of periapsis
181.2201°
True anomaly
238.33095°
Mean anomaly
239.9588°
Eccentric anomaly
239.14317°
Mean motion
3.2968 °/min
Orbital period
109.2 mins
BSTAR
0.00012768
Loading maneuver chart data...
Computing Atmospheric mass density...
Loading historical data...
Loading historical data...
Loading historical data...
Loading historical data...
Loading historical data...
Loading historical data...
Loading historical data...

Documentation

Showing up to 5 results
|